TimeCST,TemperatureF,Dew PointF,Humidity,Sea Level PressureIn,VisibilityMPH,Wind Direction,Wind SpeedMPH,Gust SpeedMPH,PrecipitationIn,Events,Conditions,WindDirDegrees,DateUTC
12:15 AM,-9999,-9999,N/A,30.49,10.0,Calm,Calm,-,N/A,,Clear,0,2013-01-18 06:15:00
12:35 AM,-9999,-9999,N/A,30.49,10.0,Calm,Calm,-,N/A,,Clear,0,2013-01-18 06:35:00
12:55 AM,-9999,-9999,N/A,30.49,10.0,Calm,Calm,-,N/A,,Clear,0,2013-01-18 06:55:00
1:15 AM,-9999,-9999,N/A,30.49,10.0,Calm,Calm,-,N/A,,Clear,0,2013-01-18 07:15:00
1:35 AM,-9999,-9999,N/A,30.49,10.0,Calm,Calm,-,N/A,,Clear,0,2013-01-18 07:35:00
1:55 AM,-9999,-9999,N/A,30.49,10.0,Calm,Calm,-,N/A,,Clear,0,2013-01-18 07:55:00
2:15 AM,-9999,-9999,N/A,30.49,10.0,Calm,Calm,-,N/A,,Clear,0,2013-01-18 08:15:00
2:55 AM,-9999,-9999,N/A,30.49,10.0,Calm,Calm,-,N/A,,Clear,0,2013-01-18 08:55:00
3:15 AM,-9999,-9999,N/A,30.49,10.0,Calm,Calm,-,N/A,,Clear,0,2013-01-18 09:15:00
3:35 AM,-9999,-9999,N/A,30.49,10.0,Calm,Calm,-,N/A,,Clear,0,2013-01-18 09:35:00
3:55 AM,-9999,-9999,N/A,30.50,10.0,Calm,Calm,-,N/A,,Clear,0,2013-01-18 09:55:00
4:15 AM,-9999,-9999,N/A,30.50,10.0,Calm,Calm,-,N/A,,Clear,0,2013-01-18 10:15:00
4:35 AM,-9999,-9999,N/A,30.50,10.0,Calm,Calm,-,N/A,,Clear,0,2013-01-18 10:35:00
4:55 AM,-9999,-9999,N/A,30.50,10.0,Calm,Calm,-,N/A,,Clear,0,2013-01-18 10:55:00
5:15 AM,-9999,-9999,N/A,30.50,10.0,Calm,Calm,-,N/A,,Clear,0,2013-01-18 11:15:00
5:35 AM,-9999,-9999,N/A,30.50,10.0,Calm,Calm,-,N/A,,Clear,0,2013-01-18 11:35:00
6:15 AM,-9999,-9999,N/A,30.51,10.0,Calm,Calm,-,N/A,,Clear,0,2013-01-18 12:15:00
6:35 AM,-9999,-9999,N/A,30.51,10.0,Calm,Calm,-,N/A,,Clear,0,2013-01-18 12:35:00
6:55 AM,-9999,-9999,N/A,30.51,10.0,Calm,Calm,-,N/A,,Clear,0,2013-01-18 12:55:00
7:15 AM,-9999,-9999,N/A,30.52,10.0,Calm,Calm,-,N/A,,Clear,0,2013-01-18 13:15:00
7:35 AM,-9999,-9999,N/A,30.52,10.0,Calm,Calm,-,N/A,,Clear,0,2013-01-18 13:35:00
7:55 AM,-9999,-9999,N/A,30.53,10.0,Calm,Calm,-,N/A,,Clear,0,2013-01-18 13:55:00
8:15 AM,-9999,-9999,N/A,30.53,7.0,Calm,Calm,-,N/A,,Clear,0,2013-01-18 14:15:00
8:35 AM,-9999,-9999,N/A,30.53,10.0,Calm,Calm,-,N/A,,Clear,0,2013-01-18 14:35:00
8:55 AM,41.0,41.0,100,30.53,10.0,ENE,4.6,-,N/A,,Clear,60,2013-01-18 14:55:00
9:15 AM,42.8,42.8,100,30.54,10.0,ENE,4.6,-,N/A,,Clear,70,2013-01-18 15:15:00
9:35 AM,44.6,39.2,81,30.55,10.0,ENE,5.8,-,N/A,,Clear,70,2013-01-18 15:35:00
9:55 AM,46.4,39.2,76,30.56,10.0,NE,3.5,-,N/A,,Clear,50,2013-01-18 15:55:00
10:15 AM,48.2,39.2,71,30.56,10.0,ENE,4.6,-,N/A,,Clear,70,2013-01-18 16:15:00
10:35 AM,50.0,37.4,62,30.55,10.0,NNE,5.8,-,N/A,,Clear,30,2013-01-18 16:35:00
10:55 AM,50.0,37.4,62,30.54,10.0,East,3.5,-,N/A,,Clear,80,2013-01-18 16:55:00
11:15 AM,51.8,35.6,54,30.53,10.0,Calm,Calm,-,N/A,,Clear,0,2013-01-18 17:15:00
11:35 AM,53.6,35.6,51,30.52,10.0,North,3.5,-,N/A,,Clear,350,2013-01-18 17:35:00
11:55 AM,53.6,33.8,47,30.51,10.0,Calm,Calm,-,N/A,,Clear,0,2013-01-18 17:55:00
12:15 PM,55.4,33.8,44,30.49,10.0,Calm,Calm,-,N/A,,Clear,0,2013-01-18 18:15:00
12:35 PM,57.2,32.0,38,30.47,10.0,Calm,Calm,-,N/A,,Clear,0,2013-01-18 18:35:00
12:55 PM,57.2,30.2,36,30.47,10.0,Calm,Calm,-,N/A,,Clear,0,2013-01-18 18:55:00
1:15 PM,59.0,26.6,29,30.45,10.0,Calm,Calm,-,N/A,,Clear,0,2013-01-18 19:15:00
1:35 PM,60.8,26.6,27,30.44,10.0,ESE,4.6,-,N/A,,Clear,110,2013-01-18 19:35:00
1:55 PM,59.0,26.6,29,30.43,10.0,Calm,Calm,-,N/A,,Clear,0,2013-01-18 19:55:00
2:15 PM,60.8,26.6,27,30.43,10.0,North,4.6,-,N/A,,Clear,360,2013-01-18 20:15:00
2:35 PM,60.8,26.6,27,30.42,10.0,NNE,3.5,-,N/A,,Clear,20,2013-01-18 20:35:00
2:55 PM,60.8,23.0,23,30.42,10.0,Calm,Calm,-,N/A,,Clear,0,2013-01-18 20:55:00
3:15 PM,60.8,24.8,25,30.41,10.0,East,3.5,-,N/A,,Clear,90,2013-01-18 21:15:00
3:35 PM,60.8,24.8,25,30.41,10.0,Calm,Calm,-,N/A,,Clear,0,2013-01-18 21:35:00
3:55 PM,60.8,24.8,25,30.41,10.0,Calm,Calm,-,N/A,,Clear,0,2013-01-18 21:55:00
4:15 PM,60.8,24.8,25,30.40,10.0,Calm,Calm,-,N/A,,Clear,0,2013-01-18 22:15:00
4:35 PM,59.0,26.6,29,30.41,10.0,Calm,Calm,-,N/A,,Clear,0,2013-01-18 22:35:00
4:55 PM,59.0,30.2,34,30.41,10.0,Calm,Calm,-,N/A,,Clear,0,2013-01-18 22:55:00
5:15 PM,51.8,41.0,67,30.41,10.0,Calm,Calm,-,N/A,,Clear,0,2013-01-18 23:15:00
5:35 PM,50.0,39.2,66,30.41,10.0,Calm,Calm,-,N/A,,Clear,0,2013-01-18 23:35:00
5:55 PM,44.6,39.2,81,30.41,10.0,Calm,Calm,-,N/A,,Clear,0,2013-01-18 23:55:00
6:15 PM,41.0,41.0,100,30.41,10.0,Calm,Calm,-,N/A,,Clear,0,2013-01-19 00:15:00
6:35 PM,-9999,-9999,N/A,30.41,10.0,Calm,Calm,-,N/A,,Clear,0,2013-01-19 00:35:00
6:55 PM,-9999,-9999,N/A,30.41,10.0,Calm,Calm,-,N/A,,Clear,0,2013-01-19 00:55:00
7:15 PM,-9999,-9999,N/A,30.42,10.0,Calm,Calm,-,N/A,,Clear,0,2013-01-19 01:15:00
7:55 PM,-9999,-9999,N/A,30.42,10.0,Calm,Calm,-,N/A,,Clear,0,2013-01-19 01:55:00
8:15 PM,-9999,-9999,N/A,30.42,10.0,Calm,Calm,-,N/A,,Clear,0,2013-01-19 02:15:00
8:55 PM,-9999,-9999,N/A,30.42,10.0,Calm,Calm,-,N/A,,Clear,0,2013-01-19 02:55:00
9:15 PM,-9999,-9999,N/A,30.42,10.0,Calm,Calm,-,N/A,,Clear,0,2013-01-19 03:15:00
9:35 PM,-9999,-9999,N/A,30.41,10.0,Calm,Calm,-,N/A,,Clear,0,2013-01-19 03:35:00
9:55 PM,-9999,-9999,N/A,30.41,10.0,Calm,Calm,-,N/A,,Clear,0,2013-01-19 03:55:00
10:15 PM,-9999,-9999,N/A,30.41,10.0,Calm,Calm,-,N/A,,Clear,0,2013-01-19 04:15:00
10:35 PM,-9999,-9999,N/A,30.41,10.0,Calm,Calm,-,N/A,,Clear,0,2013-01-19 04:35:00
10:55 PM,-9999,-9999,N/A,30.40,10.0,Calm,Calm,-,N/A,,Clear,0,2013-01-19 04:55:00
11:15 PM,-9999,-9999,N/A,30.40,10.0,Calm,Calm,-,N/A,,Clear,0,2013-01-19 05:15:00
11:35 PM,-9999,-9999,N/A,30.39,10.0,Calm,Calm,-,N/A,,Clear,0,2013-01-19 05:35:00
11:55 PM,-9999,-9999,N/A,30.39,10.0,Calm,Calm,-,N/A,,Clear,0,2013-01-19 05:55:00